GEFSSGP_500_meanwind_066.txt.gz
Wind_Speed
24 23 23 21 19 18 16 14 12 10 8 4 3 1 1 3 5 5 5 6 6 6 5 6 7 7 7 7 7 6 6 5 5 5 5 5 5 5 5 6 6 7 7 7 8 8 8 8 8
25 25 26 25 22 20 17 15 13 11 9 7 4 2 1 4 5 6 7 7 7 6 6 6 7 7 7 7 7 6 6 5 5 5 4 4 4 4 4 4 4 5 6 6 6 6 7 7 8
25 27 28 28 26 22 19 17 15 13 11 8 5 3 2 4 5 7 7 8 8 7 6 6 7 6 6 6 6 6 6 5 5 5 4 4 3 3 3 3 3 4 5 5 6 6 6 6 7
25 28 30 30 28 25 22 20 18 16 14 11 9 6 4 4 5 7 8 8 7 6 7 7 6 6 6 6 6 6 6 5 5 4 4 3 2 2 2 2 3 4 5 5 6 6 6 6 7
24 27 29 30 29 27 24 23 21 19 17 14 11 8 5 4 5 7 8 7 6 5 6 6 5 5 6 6 6 6 6 5 5 4 3 3 2 2 2 2 3 4 5 5 6 7 7 7 8
24 25 26 26 29 30 27 25 23 21 19 16 13 10 6 5 5 6 7 6 5 5 5 5 4 4 5 6 6 6 6 6 5 5 4 3 2 1 1 2 3 4 5 6 7 8 8 8 8
24 23 23 23 29 32 30 28 26 23 21 18 15 12 9 6 5 6 7 5 4 4 4 4 4 5 5 6 6 6 6 6 6 5 4 4 3 2 2 2 3 4 5 7 8 9 9 9 9
24 22 20 21 27 32 32 31 29 27 24 21 17 14 11 7 6 6 6 5 4 3 3 4 5 6 7 7 7 7 7 7 7 6 5 5 4 3 3 3 4 5 6 8 9 10 10 10 10
24 22 18 19 25 31 35 34 32 31 27 24 19 16 12 9 7 6 6 5 3 3 4 5 6 7 8 8 8 9 8 8 7 7 6 5 5 4 4 4 5 6 7 8 9 11 11 11 12
25 21 18 20 25 33 37 37 35 33 29 25 21 17 13 9 8 7 6 5 3 3 5 6 7 8 8 9 10 10 9 8 8 7 6 6 6 6 5 5 6 7 8 9 10 11 12 12 13
27 23 21 23 26 33 38 39 38 36 31 27 22 18 14 11 8 7 6 5 3 4 5 7 8 8 9 10 10 10 10 9 8 8 7 7 7 7 6 7 8 9 9 10 10 11 13 13 14
29 26 24 24 26 31 37 40 39 37 33 29 24 20 16 11 9 8 7 6 4 4 6 8 8 9 9 9 10 10 10 9 9 9 8 9 9 8 8 8 9 10 11 11 12 13 13 14 14
30 28 26 26 26 29 35 39 39 37 35 32 26 22 18 14 11 10 8 7 6 5 7 8 9 10 10 10 10 10 10 10 10 10 10 10 10 9 9 10 11 12 13 13 13 14 14 14 15
31 29 28 26 26 28 33 36 37 36 35 32 27 23 20 16 13 12 9 8 7 7 8 9 10 11 12 12 11 11 11 11 11 11 11 11 11 11 12 12 13 14 15 15 16 16 16 16 16
32 29 28 27 25 26 29 33 34 34 33 31 28 25 23 18 15 13 11 9 9 8 9 11 12 13 14 13 13 13 13 13 13 13 13 14 14 14 15 16 16 16 17 18 19 19 19 19 18
32 30 28 27 27 27 27 29 31 33 33 31 28 26 23 19 17 16 14 12 11 11 11 13 14 16 16 16 15 15 15 15 15 15 15 16 16 17 18 19 20 20 20 21 21 22 21 21 21
32 31 29 28 29 29 28 28 31 32 32 31 28 26 24 22 20 18 16 15 14 13 14 15 17 18 19 19 19 18 18 18 18 18 19 19 20 21 22 22 24 24 24 25 24 24 24 24 24
31 31 30 29 29 30 29 29 32 32 31 30 29 27 25 24 22 20 18 17 17 17 17 18 19 21 22 22 22 22 21 22 22 23 23 23 24 25 26 25 26 28 29 29 29 28 28 27 27
31 31 30 30 31 30 30 30 33 33 31 30 29 28 27 25 24 22 20 20 19 19 20 21 22 23 24 25 24 25 25 25 25 26 27 27 28 28 28 29 30 31 31 32 32 31 31 30 29
30 30 29 30 32 32 32 31 32 34 32 30 30 29 28 27 26 23 22 22 22 22 21 21 22 24 25 25 26 27 29 29 29 30 29 31 31 32 33 33 34 34 33 33 32 32 33 31 31
28 29 28 29 31 31 31 32 31 32 32 31 30 29 29 27 26 25 25 24 23 23 23 21 22 25 26 27 29 29 31 31 32 32 32 33 34 33 34 34 35 37 37 35 34 35 35 33 34
26 27 28 29 30 30 31 32 32 31 31 31 30 30 29 28 28 27 27 25 24 24 23 23 23 25 26 28 30 32 33 33 34 35 34 33 33 34 35 35 36 37 34 34 35 36 36 36 38
26 27 28 29 30 31 31 32 32 31 31 30 30 30 30 29 29 29 28 27 26 25 24 25 26 27 28 31 32 34 36 36 37 37 37 35 34 36 38 37 38 39 37 38 38 39 40 40 41
26 28 28 29 31 31 31 32 32 31 30 30 30 30 30 30 31 30 29 28 27 27 27 29 28 28 30 31 33 36 37 38 39 40 39 38 38 39 40 40 40 40 41 41 42 42 43 43 43
27 29 29 30 31 31 32 33 34 32 31 31 31 30 30 31 31 31 31 30 30 30 31 32 31 31 33 35 37 38 39 39 41 41 40 40 40 41 41 42 42 43 44 44 44 45 45 45 46
26 29 31 31 32 33 33 34 33 31 30 31 31 31 31 31 31 32 33 32 33 33 33 34 35 35 36 37 39 40 41 42 42 42 43 43 43 43 43 44 44 45 46 47 47 48 48 49 51
25 27 30 31 31 33 34 35 35 33 32 33 33 33 32 32 33 33 34 35 36 37 38 38 39 39 39 41 41 42 43 42 43 43 43 44 44 45 45 46 47 48 48 49 50 51 52 53 54
24 26 28 30 30 32 34 35 35 33 33 33 33 34 34 34 34 35 37 38 39 39 39 40 40 40 41 41 42 42 43 43 44 44 45 45 46 46 47 48 49 50 51 52 53 55 56 57 58
24 26 28 29 30 30 32 34 34 34 34 34 35 35 35 36 36 37 37 38 38 39 40 40 39 41 41 41 41 42 42 43 44 44 45 45 46 47 48 50 51 52 54 55 56 58 58 59 61
22 23 26 27 27 29 31 33 33 34 34 34 35 36 36 36 36 36 36 37 38 39 39 40 40 40 40 41 40 40 40 41 42 43 44 46 48 49 50 52 53 54 56 57 58 60 61 62 63

GEFSSGP_500_meanwind_072.txt.gz
Wind_Speed
16 18 19 20 19 16 15 18 15 12 10 9 8 7 7 7 7 8 7 7 8 8 8 8 8 9 9 10 11 11 11 10 9 8 8 7 6 6 5 5 4 3 3 3 3 3 3 3 3
16 19 20 22 21 17 18 20 17 14 12 10 8 8 7 7 7 8 7 7 7 8 9 9 9 10 10 10 11 11 11 11 10 9 8 7 7 6 5 5 4 4 3 3 3 3 3 3 4
17 19 22 24 25 22 19 23 20 16 13 11 9 8 7 7 7 7 7 8 8 8 9 9 9 9 10 11 12 12 12 11 10 10 9 8 7 7 6 5 4 4 4 3 3 3 3 4 4
19 20 23 24 26 26 28 26 22 19 15 13 11 9 8 8 7 7 7 7 8 8 8 9 9 9 10 12 12 13 12 12 11 10 9 9 8 7 6 5 5 4 4 4 4 4 4 5 5
21 21 22 23 26 28 30 28 24 20 18 15 13 11 10 9 7 7 7 6 6 6 8 8 9 9 10 12 12 13 12 12 11 11 10 9 8 7 6 5 5 4 4 4 4 4 5 6 6
24 22 21 21 25 29 31 29 27 23 20 17 14 13 11 9 8 8 8 7 6 6 7 8 9 10 11 12 12 12 13 12 11 11 10 9 8 8 7 6 5 5 4 4 4 4 5 6 8
27 24 21 21 24 29 32 32 30 26 23 20 16 14 13 10 8 9 8 7 6 6 7 8 9 10 11 12 12 12 12 12 11 11 10 10 9 8 7 6 6 5 4 4 4 5 6 8 9
29 27 24 22 25 28 33 34 32 29 26 23 19 16 14 11 10 9 8 7 6 7 8 9 10 11 12 12 12 12 12 12 12 11 11 10 9 8 7 6 6 5 4 4 5 5 7 8 9
32 30 26 24 26 29 33 34 33 31 28 25 22 18 15 13 11 10 9 8 6 7 8 9 10 11 12 13 13 13 12 12 12 12 11 10 9 8 8 7 7 6 6 6 6 7 8 9 10
34 31 28 27 27 29 32 33 34 32 30 26 23 20 16 15 13 12 11 9 8 7 8 10 11 12 13 13 13 13 13 13 12 12 11 11 9 9 9 8 8 8 8 8 8 9 9 10 11
35 33 31 29 28 29 30 32 33 33 32 28 25 22 19 17 15 13 11 10 9 8 9 10 11 12 13 13 13 13 13 13 13 12 12 11 10 10 10 10 10 10 10 10 10 11 12 12 13
35 34 33 30 29 29 29 30 32 33 33 31 27 24 21 18 16 14 12 10 9 9 10 11 12 12 13 13 13 13 14 14 13 13 13 12 12 12 12 12 12 12 12 13 13 14 14 15 15
35 34 34 32 29 29 29 29 30 32 33 32 28 25 23 20 18 16 13 12 11 11 11 12 13 13 13 14 14 14 14 14 14 14 14 14 14 14 15 15 15 15 15 16 16 16 17 18 18
34 34 33 32 30 29 29 29 29 31 32 32 29 26 25 22 19 17 15 13 13 13 13 13 13 14 14 15 15 15 15 15 16 16 16 16 17 17 17 18 18 18 19 19 19 20 20 21 21
31 32 31 31 29 29 29 29 29 29 31 32 30 27 26 23 21 19 17 16 15 14 15 15 15 15 16 16 16 16 17 17 17 18 18 19 19 20 20 21 22 22 23 23 23 24 24 24 23
28 29 30 31 30 29 28 28 28 27 29 31 30 29 27 24 22 21 19 18 17 16 16 17 17 17 18 18 18 18 18 19 19 20 21 22 22 23 24 25 26 26 26 27 27 27 27 27 27
26 27 29 30 30 29 29 28 28 27 28 30 30 29 27 25 24 23 21 19 19 18 18 18 19 19 20 20 20 20 21 21 22 22 24 25 27 27 28 28 29 30 30 30 30 31 31 29 29
25 26 27 29 30 29 29 29 28 27 28 29 29 29 28 26 25 23 22 21 20 20 19 19 20 21 21 23 23 23 24 24 25 26 27 28 29 30 31 31 31 32 32 32 33 34 33 32 31
25 25 26 29 29 29 29 28 28 27 27 28 28 28 27 26 25 24 23 22 23 22 22 22 22 24 24 26 27 27 28 29 29 30 30 30 31 32 32 31 32 33 34 34 34 35 34 34 33
24 24 25 27 28 29 29 29 28 27 27 27 28 27 27 27 27 26 26 25 25 24 24 24 25 26 28 28 30 30 31 33 33 32 32 32 32 32 32 31 32 33 31 33 34 33 32 32 32
23 24 25 26 27 28 29 29 29 28 28 27 28 28 28 28 28 28 28 29 28 27 26 27 27 29 30 30 31 31 32 32 34 35 36 35 34 35 34 32 32 32 32 32 30 30 31 31 32
22 24 26 26 25 25 27 26 30 29 28 28 28 28 28 28 28 29 29 30 29 29 29 29 29 31 32 32 31 33 34 34 36 36 36 36 35 35 35 35 33 33 32 32 32 34 34 34 34
21 23 24 26 26 25 26 26 29 30 29 28 27 27 27 28 28 28 29 29 30 30 30 31 31 32 32 30 31 32 34 35 36 36 36 36 36 36 36 36 37 35 34 34 35 36 35 35 36
21 22 23 25 24 24 25 25 27 29 29 28 27 26 26 27 28 28 29 29 30 31 32 32 32 32 31 31 32 33 34 35 36 35 34 35 37 38 38 39 39 37 37 37 37 37 38 39 39
20 20 20 20 22 22 26 25 27 26 26 27 26 26 26 26 27 28 28 30 31 31 32 32 33 33 33 34 35 36 36 37 37 37 37 37 38 38 39 40 40 39 39 40 40 40 40 41 41
18 20 18 16 18 21 25 26 27 24 24 25 25 25 25 25 26 27 28 30 31 32 33 33 34 34 35 35 36 37 37 38 39 39 39 40 40 40 41 41 40 40 41 42 43 43 44 44 45
18 19 19 18 19 20 23 26 26 24 23 24 25 25 26 26 27 28 29 30 32 33 34 34 34 35 36 36 37 38 39 39 40 41 42 42 42 42 42 42 42 43 44 44 46 46 47 48 48
17 18 20 17 16 18 22 24 25 24 23 23 24 25 27 27 28 29 31 32 33 34 35 35 36 36 37 38 38 39 40 41 42 42 42 43 44 43 44 45 46 46 47 47 47 48 49 51 51
15 17 18 17 17 15 17 22 24 24 24 24 25 26 27 29 30 31 31 32 33 34 35 36 37 37 38 39 39 39 40 41 42 43 44 45 45 46 47 46 46 47 47 48 49 50 52 53 53
13 14 15 15 18 18 16 20 22 24 25 27 28 29 29 30 31 31 32 34 35 36 36 37 37 38 38 39 39 39 40 41 42 43 43 44 45 45 45 46 46 46 48 49 50 52 52 54 55

GEFSSGP_500_meanwind_078.txt.gz
Wind_Speed
12 14 15 16 14 12 8 13 11 6 8 15 15 12 12 13 14 15 14 12 11 13 13 13 13 14 14 15 15 15 15 14 14 14 13 13 12 12 11 10 9 8 7 7 6 6 6 5 5
14 16 17 17 16 14 12 17 13 8 13 15 15 12 12 15 13 13 13 13 13 14 14 15 15 15 16 16 15 16 16 15 14 14 14 13 13 12 10 10 9 8 7 6 6 6 5 5 5
17 18 19 18 17 16 16 20 16 9 12 15 15 13 14 14 13 12 12 12 13 15 15 16 16 16 17 17 17 16 16 16 15 14 14 13 12 11 10 9 8 8 7 6 6 5 5 5 5
21 21 21 19 17 15 17 23 16 9 8 11 14 15 16 15 14 13 14 13 13 14 16 16 17 17 17 18 18 17 16 16 15 14 13 13 12 11 10 9 8 8 7 6 5 5 5 5 5
25 23 22 20 18 17 19 22 18 10 8 11 15 17 18 16 14 14 14 14 13 14 15 16 16 17 17 17 17 17 17 16 15 14 13 13 12 11 10 9 8 8 7 6 6 5 5 5 6
28 27 25 21 19 19 20 22 20 14 12 13 16 19 21 17 15 14 13 13 13 13 14 15 16 17 17 17 17 17 17 16 15 14 13 13 12 11 10 9 9 8 7 6 6 6 6 6 6
30 30 27 24 22 20 21 22 22 21 18 18 19 19 22 19 14 14 14 13 13 12 13 14 15 16 17 17 17 17 17 16 15 14 14 13 12 11 10 10 9 8 8 7 7 7 7 7 7
32 32 30 27 24 21 21 26 25 25 22 23 23 22 24 20 13 13 14 14 13 12 12 13 15 16 16 17 17 17 16 15 15 14 14 13 12 11 10 10 9 9 9 8 8 8 8 8 9
34 35 32 28 25 22 22 25 27 26 25 25 25 26 27 20 15 14 14 14 13 12 12 12 13 15 16 16 16 16 15 15 14 14 13 13 12 11 11 11 10 10 10 10 10 10 10 10 10
34 35 32 30 27 24 23 24 27 25 23 23 24 27 26 22 17 17 16 15 14 13 12 12 13 14 15 16 16 16 15 15 14 14 13 13 12 12 12 11 11 11 11 12 12 12 12 12 12
32 34 33 33 30 29 27 26 26 25 24 22 22 26 27 22 19 19 18 16 15 14 13 12 12 14 15 15 15 15 15 14 14 13 13 13 12 12 12 12 12 13 13 13 14 14 14 15 15
30 32 34 35 35 34 32 31 28 25 24 22 24 27 29 24 21 21 20 18 15 15 14 13 13 14 14 15 15 14 14 14 14 14 14 14 13 13 13 13 14 14 14 15 16 16 17 17 18
29 30 33 36 38 36 36 35 32 29 27 27 28 30 29 26 24 22 21 19 15 15 15 13 13 13 13 14 14 14 14 15 15 15 15 14 15 14 15 15 16 16 16 17 18 18 19 20 21
27 30 32 34 36 35 35 34 33 31 28 29 29 29 26 24 24 23 23 20 16 15 15 15 14 14 14 14 15 15 15 15 15 15 15 15 15 15 16 17 18 19 19 20 21 21 22 23 23
26 29 31 31 33 33 33 34 32 30 30 30 30 30 28 27 26 24 24 21 18 16 16 15 15 15 15 15 16 16 16 16 16 16 16 17 17 17 18 19 20 21 22 23 24 25 25 26 27
23 24 26 26 28 30 31 30 29 29 30 29 29 30 30 29 26 26 25 20 19 17 16 16 16 15 16 16 16 17 17 17 17 18 18 19 19 20 21 22 23 24 25 26 27 27 27 27 28
17 17 18 18 21 25 27 26 25 26 28 29 30 29 30 31 27 27 25 21 20 18 17 18 18 17 17 17 17 18 18 19 20 20 20 22 22 23 25 25 26 27 28 28 28 28 28 28 29
9 10 11 12 18 22 23 24 24 26 28 29 29 30 32 30 28 27 26 22 21 20 18 19 19 18 18 19 19 19 20 21 22 23 24 24 26 27 28 28 28 29 29 30 29 28 29 29 29
15 15 14 15 18 21 22 24 26 28 29 30 30 29 27 26 29 28 25 23 22 21 20 19 19 20 19 20 20 21 22 24 25 26 27 27 28 29 28 29 30 31 31 29 28 29 30 30 29
18 17 16 17 20 21 22 25 27 30 32 31 29 29 28 27 29 28 27 24 23 22 21 20 20 21 21 22 22 23 24 26 27 28 29 29 30 31 32 32 33 33 33 32 30 30 29 29 30
19 18 19 19 20 22 24 26 29 29 31 29 29 27 27 28 28 27 25 23 23 22 22 21 22 23 24 25 25 25 26 27 29 30 30 31 31 31 32 33 33 32 31 30 30 31 31 31 32
17 17 19 20 20 19 21 23 27 30 29 30 31 31 29 28 27 27 25 25 25 25 25 25 26 26 26 27 26 27 28 29 31 32 33 33 33 34 33 33 32 31 31 31 31 32 32 33 34
15 16 18 18 19 20 20 21 23 26 29 29 30 29 29 28 28 27 26 26 27 28 27 27 28 28 28 28 29 29 30 31 31 32 33 32 33 32 31 31 32 32 31 32 33 34 35 35 36
15 14 15 17 18 21 21 21 24 27 27 28 29 30 29 29 29 29 27 27 28 28 28 28 28 29 30 30 31 32 32 32 33 34 34 33 33 33 32 32 31 32 32 34 35 36 37 38 39
15 14 13 14 17 18 19 21 28 28 27 26 27 28 27 27 28 28 28 28 27 27 27 28 29 31 31 32 33 35 35 36 36 35 36 35 34 33 33 34 35 35 35 37 38 39 39 40 40
14 15 15 13 14 16 19 26 31 28 26 24 25 27 27 27 27 27 27 27 27 27 28 29 30 31 32 34 35 36 37 36 36 36 36 36 36 36 36 36 36 37 38 39 40 42 42 42 43
12 15 16 17 16 16 20 26 28 28 25 23 22 23 25 27 28 27 27 27 28 28 28 29 31 33 33 34 35 36 35 36 37 37 37 38 38 38 38 38 38 39 41 42 43 45 45 44 45
12 13 16 18 16 17 19 21 24 22 22 23 23 23 24 25 26 26 27 27 28 29 30 31 32 34 35 35 35 35 36 37 38 39 39 39 39 39 39 40 41 42 43 44 45 46 46 46 46
12 14 16 16 16 16 18 20 22 22 20 20 21 21 23 24 26 27 28 29 30 31 32 33 34 35 35 36 36 37 39 40 39 39 40 40 39 40 41 43 44 45 45 45 46 45 45 46 47
11 14 15 17 17 17 19 22 21 21 17 18 20 21 22 24 26 27 28 28 29 30 32 33 35 35 36 37 38 39 40 40 39 39 40 40 41 42 43 44 44 45 45 45 45 45 46 47 46

GEFSSGP_500_meanwind_084.txt.gz
Wind_Speed
17 15 15 16 16 16 16 17 16 13 10 11 9 8 7 7 9 9 10 9 6 6 7 8 10 11 12 13 14 14 15 15 15 13 12 12 12 12 12 12 11 11 11 11 10 9 8 7 6
20 18 17 17 16 16 18 19 17 14 12 12 12 10 7 5 7 8 9 9 7 7 7 8 10 11 13 14 14 15 15 16 15 14 13 13 13 12 12 12 12 12 11 10 9 9 7 6 5
23 22 20 18 16 16 19 21 20 15 13 11 12 11 7 4 7 9 9 10 8 7 8 9 10 11 14 15 15 16 16 16 15 14 14 13 13 13 12 12 12 11 10 10 9 8 7 6 5
25 25 23 20 16 17 21 22 22 17 14 12 14 15 10 6 8 9 10 10 9 9 9 10 11 12 13 15 16 16 16 16 15 14 14 13 13 12 12 11 11 11 10 9 8 8 7 6 5
28 27 25 21 17 19 22 24 23 19 15 15 16 15 12 9 9 9 9 10 10 10 10 11 12 12 13 14 16 17 16 16 15 15 14 14 13 12 12 11 11 10 10 9 8 7 7 6 6
29 30 28 23 21 21 23 25 25 22 17 17 18 16 14 11 9 9 10 11 11 10 11 12 13 13 13 14 15 16 16 16 16 15 15 14 14 13 12 11 11 10 9 8 8 7 7 6 6
29 30 30 26 24 24 25 26 26 24 20 19 22 21 17 13 9 9 10 11 10 10 11 12 13 13 14 14 15 15 16 16 16 15 15 15 14 13 12 12 11 10 9 9 8 7 7 7 7
29 30 30 29 27 25 27 29 28 26 23 22 23 21 18 14 11 11 11 12 12 11 11 12 13 13 14 14 15 15 16 16 16 15 15 15 14 13 12 12 11 10 10 9 9 8 8 8 8
28 30 29 29 29 28 30 32 30 28 27 25 24 21 19 17 14 13 13 14 14 13 12 12 13 13 13 14 14 15 16 16 15 15 15 15 14 13 12 12 12 11 10 10 9 9 9 10 10
27 28 27 29 31 32 34 34 32 30 28 27 25 24 21 21 18 15 13 15 15 14 13 12 12 12 13 14 14 15 15 15 15 15 15 14 14 13 12 12 12 11 11 10 10 10 11 11 11
26 26 27 30 32 34 36 36 34 33 30 28 27 25 23 23 20 16 16 17 18 17 16 13 12 12 12 13 14 14 15 15 15 15 15 14 14 13 12 12 12 12 11 11 11 11 12 13 14
25 26 28 30 33 36 36 37 37 36 32 29 28 28 26 23 20 19 19 19 19 17 17 15 12 12 12 13 14 14 15 15 15 15 14 14 14 13 13 13 13 13 13 12 12 12 13 15 16
25 26 27 30 33 36 37 37 37 37 34 31 29 28 25 22 21 21 22 22 22 19 18 16 13 12 12 13 14 14 15 15 15 15 15 14 14 14 13 13 13 13 13 13 14 15 15 17 18
24 26 27 28 31 34 37 38 38 36 35 34 32 29 27 25 24 24 23 23 22 20 19 17 16 14 13 13 14 14 15 16 16 15 15 16 15 14 14 14 14 15 15 15 15 17 17 18 19
23 24 25 25 27 30 35 37 37 35 36 35 34 32 31 30 28 27 27 25 24 22 20 17 17 15 14 14 15 15 15 15 15 15 16 16 16 16 16 16 16 16 16 17 17 17 18 19 21
21 22 21 20 23 26 31 33 34 36 36 36 35 35 35 33 31 29 29 28 26 23 21 17 17 17 16 14 14 14 15 16 16 16 17 17 17 18 18 18 17 18 18 19 19 19 20 21 22
19 18 17 17 19 21 26 28 31 34 37 38 37 37 36 34 33 31 29 29 27 22 20 19 19 17 15 14 14 14 15 16 17 17 17 18 19 19 19 19 19 20 21 21 21 21 21 22 24
15 15 15 15 15 18 22 25 27 30 34 37 37 37 36 35 35 33 31 29 25 22 20 20 20 18 15 14 13 13 14 16 17 17 16 17 17 18 19 21 21 22 23 23 23 24 24 24 25
15 15 15 15 15 17 20 22 24 26 30 33 34 34 34 35 35 33 32 30 27 25 22 22 20 18 16 15 15 15 15 15 16 16 16 17 17 18 19 20 22 23 24 24 24 25 25 25 26
15 16 15 15 16 17 18 20 22 24 26 28 31 32 33 34 34 33 33 32 27 26 23 22 21 19 19 18 17 17 16 16 16 17 17 17 18 19 20 20 21 23 23 22 24 24 25 25 26
15 16 16 16 17 18 17 19 20 21 23 25 28 30 32 31 32 31 32 31 28 24 24 23 22 23 21 19 18 17 17 18 19 19 20 20 20 20 20 21 21 21 23 24 24 24 25 25 25
15 16 17 18 18 18 20 20 21 21 22 24 27 29 30 31 29 29 29 27 26 25 25 25 22 22 21 20 20 20 20 19 20 21 21 21 21 21 21 20 21 21 21 22 22 23 25 25 26
16 16 19 20 20 21 22 22 23 22 24 24 25 28 30 30 29 28 28 27 26 25 23 23 23 22 21 21 22 21 20 20 21 21 21 20 20 20 20 20 20 21 22 23 24 24 25 27 28
17 17 18 20 20 21 21 23 23 22 22 25 26 26 28 29 28 28 28 27 26 25 24 25 24 24 24 23 23 23 23 24 23 23 23 22 23 22 21 21 22 23 24 26 26 27 28 29 30
18 17 17 18 19 19 19 23 24 23 23 24 24 24 26 26 26 26 27 26 26 27 27 27 26 25 23 23 24 24 25 25 25 24 24 24 24 24 24 25 25 26 27 28 29 29 30 32 33
15 16 16 15 16 16 18 21 21 22 22 23 23 24 25 24 24 24 26 27 27 27 28 29 27 26 25 25 25 25 26 27 27 26 25 26 26 26 27 28 29 29 31 31 32 32 33 35 36
13 15 15 16 16 16 17 18 19 20 21 22 23 24 23 23 25 26 26 27 28 28 28 29 28 27 27 27 27 27 28 29 29 29 29 29 29 30 31 32 33 34 35 35 35 35 36 37 38
11 13 15 16 16 15 15 17 18 20 20 21 22 24 24 24 24 25 25 26 27 26 26 26 28 29 29 29 30 30 31 31 31 31 31 33 33 33 34 35 36 37 37 37 38 38 39 40 40
12 14 15 14 14 16 16 17 18 19 19 19 20 21 23 24 24 23 24 25 26 26 26 26 28 29 30 30 31 31 32 33 33 34 34 34 35 36 37 37 38 38 39 39 40 40 40 41 41
11 13 14 14 14 15 16 17 17 18 18 17 17 19 21 23 24 24 24 25 26 27 27 28 28 30 31 32 32 33 34 34 35 35 35 36 37 37 38 38 38 39 39 40 40 40 40 41 41

GEFSSGP_500_meanwind_090.txt.gz
Wind_Speed
21 19 17 16 16 15 15 16 18 19 19 17 15 14 12 9 6 5 4 4 3 3 3 4 6 8 8 9 8 8 8 8 8 8 8 8 8 8 8 9 9 9 8 9 9 9 8 8 7
23 22 20 19 17 15 15 17 19 20 19 18 17 15 13 9 7 7 5 5 5 4 4 4 6 7 8 8 8 8 8 8 9 9 9 9 9 9 9 9 9 8 8 8 8 8 7 7 6
26 25 24 21 18 15 15 17 19 21 20 19 18 16 14 11 9 9 7 7 6 5 5 6 7 8 8 8 9 9 9 9 10 10 10 10 10 10 10 9 9 8 8 8 7 7 7 6 6
26 27 26 24 19 17 18 19 21 22 22 20 19 17 15 13 11 10 8 8 8 7 7 7 8 9 10 10 10 10 11 11 11 11 11 11 10 10 10 10 9 9 8 8 7 7 7 6 6
27 27 27 25 21 20 20 21 22 23 24 23 21 19 17 14 12 10 9 8 8 9 8 8 9 10 10 10 10 11 11 12 12 12 12 12 11 11 11 10 10 10 9 8 7 7 7 6 6
25 27 27 25 23 23 23 24 25 25 25 25 23 20 18 16 14 9 8 8 9 9 9 9 10 10 10 11 11 11 12 13 13 13 13 13 12 12 12 11 11 10 9 8 8 7 7 6 6
25 25 26 25 25 25 26 27 27 28 27 27 25 21 18 16 14 12 8 8 8 9 9 9 9 10 11 11 11 12 12 13 14 14 14 14 13 13 13 12 12 11 10 9 8 8 7 7 6
25 25 24 24 25 26 28 30 30 30 29 28 26 23 19 17 15 12 10 10 10 11 11 10 9 10 11 11 12 12 12 13 14 15 15 15 14 14 13 13 12 11 11 10 9 9 8 7 7
24 24 24 24 26 28 30 32 32 33 31 30 28 25 22 20 15 13 11 11 12 12 12 10 10 10 11 11 12 13 13 14 15 16 16 16 15 15 14 13 13 12 12 11 10 10 9 9 8
23 22 23 25 27 29 32 33 34 34 33 30 29 27 24 21 17 15 13 13 14 13 12 11 11 11 12 12 13 13 14 16 16 17 17 17 16 16 15 15 14 14 12 12 11 11 11 10 10
22 22 23 25 27 29 32 34 35 36 34 32 31 29 25 22 19 17 17 16 16 16 14 13 13 13 13 14 14 15 15 16 17 18 18 18 18 17 17 16 16 15 14 13 13 12 12 12 11
23 23 23 24 26 28 31 34 35 36 35 34 33 31 27 23 20 19 18 17 18 17 16 16 16 15 16 16 15 16 17 18 18 19 19 19 19 18 18 17 17 16 15 14 14 14 14 13 13
22 23 23 24 26 27 30 32 34 35 35 35 34 33 30 26 22 20 19 19 18 18 18 16 16 17 18 18 17 18 19 19 19 20 20 20 20 19 19 18 18 17 16 16 16 15 15 15 15
22 22 22 23 25 26 28 30 33 34 35 35 35 33 31 28 25 23 21 20 19 19 19 18 19 19 19 19 19 20 21 21 21 21 21 21 21 20 20 20 19 18 17 17 17 17 17 17 17
23 22 22 23 24 26 28 29 30 33 36 36 36 35 33 31 28 25 24 22 21 20 20 20 20 21 22 21 21 22 22 23 23 23 23 22 22 22 21 20 21 20 19 19 19 19 19 19 20
23 23 22 23 24 26 27 27 28 32 35 37 37 36 35 33 30 27 26 25 24 23 22 22 21 22 23 23 23 23 24 24 24 24 23 24 24 23 22 22 22 22 21 21 21 20 21 21 21
23 23 22 22 24 26 27 27 27 30 33 35 36 37 36 34 31 29 28 26 26 26 23 22 23 23 22 24 22 22 24 25 26 25 25 24 24 24 24 24 24 23 23 23 23 22 23 23 24
23 22 22 22 23 25 26 27 26 28 30 32 34 36 36 35 33 31 30 29 27 27 25 25 25 24 24 24 24 23 24 25 26 26 26 25 25 24 24 25 24 25 25 24 25 25 26 25 25
22 21 20 20 22 24 25 25 25 26 28 30 31 33 34 34 33 31 30 29 28 27 27 26 26 25 26 25 24 24 24 24 25 25 25 25 25 25 24 24 24 24 24 24 25 26 27 27 27
21 20 19 19 21 23 24 24 23 23 24 26 28 30 32 32 31 31 31 30 29 28 27 27 27 27 28 27 26 26 25 26 26 25 25 25 25 24 24 24 24 24 24 25 25 26 27 28 27
19 19 19 20 21 23 23 23 22 22 22 23 25 27 28 30 30 31 32 31 30 29 29 29 28 27 27 26 26 26 25 25 26 26 26 24 24 24 24 23 23 24 24 25 25 26 27 27 28
18 19 20 20 21 21 22 22 22 22 21 21 22 23 25 27 28 30 31 31 30 29 28 27 26 26 27 26 25 25 25 24 24 24 25 25 25 24 24 24 24 24 25 25 25 26 26 27 28
18 19 20 21 22 21 21 22 20 20 19 19 20 20 21 23 26 28 29 29 29 27 26 26 25 26 26 26 24 23 24 23 23 23 22 22 22 22 22 22 23 24 25 25 26 27 26 27 28
18 19 20 21 22 21 21 22 21 18 19 19 19 20 20 21 23 25 26 27 27 26 26 25 25 24 24 24 23 21 22 21 20 21 21 21 21 20 21 22 23 24 25 25 25 27 27 28 29
18 18 19 19 19 20 19 21 21 19 20 19 20 20 21 22 22 23 24 24 25 26 26 26 25 24 23 23 22 21 21 20 19 19 20 20 20 20 21 21 23 24 26 27 28 29 30 31 32
16 17 17 18 18 18 19 20 20 19 19 20 20 20 20 21 22 23 24 24 25 25 26 26 25 24 22 23 24 22 22 22 20 20 22 22 23 24 24 24 25 27 29 30 30 31 33 34 35
15 15 15 17 18 18 17 17 17 18 19 19 20 20 20 21 22 23 23 24 24 24 25 25 25 24 24 23 23 24 23 23 22 22 24 25 26 26 27 27 29 30 31 32 33 34 35 36 37
13 13 14 15 16 16 16 16 17 17 17 17 18 20 20 20 21 22 23 23 24 23 24 25 24 25 24 23 23 24 25 25 25 25 26 26 27 27 27 29 30 32 33 34 35 36 37 38 39
12 13 14 15 15 16 16 15 15 15 16 16 16 18 19 18 19 21 22 24 24 24 24 25 25 25 24 23 23 24 25 25 25 25 27 27 28 28 29 30 31 32 34 35 36 37 38 39 40
11 12 13 14 14 14 15 13 12 13 14 14 14 14 16 16 17 19 20 22 23 23 24 24 24 24 24 24 24 24 24 25 26 27 27 28 29 30 31 32 33 34 35 36 37 38 39 40 40

GEFSSGP_500_meanwind_096.txt.gz
Wind_Speed
18 17 15 14 13 12 12 15 16 16 16 15 13 12 11 10 11 10 8 8 9 10 12 13 14 13 12 12 12 12 13 13 12 11 10 9 8 7 5 4 3 3 3 3 2 2 2 2 2
19 19 17 16 14 13 14 16 17 17 16 14 13 12 11 11 11 10 9 9 9 11 12 14 13 13 12 12 12 13 14 14 13 12 11 10 9 8 7 6 5 5 4 4 4 4 3 3 3
21 20 20 18 16 14 16 19 18 18 16 15 13 12 12 11 11 11 11 11 11 11 12 13 13 13 13 13 13 13 14 14 14 13 13 12 11 10 9 7 7 6 6 5 5 5 4 4 4
21 21 21 19 17 18 20 21 20 18 17 15 14 13 12 12 12 12 12 12 12 12 13 13 14 13 13 13 13 14 15 15 15 15 14 13 12 11 10 9 8 8 7 7 6 6 5 5 4
21 21 21 20 18 20 22 24 23 20 18 16 14 13 13 12 13 13 13 13 13 12 13 13 14 14 14 14 15 15 15 16 17 16 16 15 14 13 12 10 9 9 8 8 8 7 6 6 5
21 21 21 20 20 22 23 24 24 22 20 18 16 15 14 13 13 13 12 13 13 12 13 14 15 15 15 15 16 16 16 16 17 17 16 15 15 14 13 12 11 10 10 9 9 8 7 7 6
20 21 21 20 21 22 25 25 25 24 22 20 18 16 16 15 15 14 13 12 13 12 12 14 14 15 16 17 17 17 17 17 17 17 17 17 16 15 14 13 12 12 11 10 10 9 9 8 8
20 21 21 21 22 24 25 26 26 25 24 22 19 18 18 16 16 15 14 12 13 13 14 15 15 16 17 17 18 18 18 18 17 17 18 18 17 17 16 15 14 13 12 12 11 11 10 10 9
20 20 20 22 23 24 25 26 26 26 24 23 21 20 19 18 17 16 15 15 15 15 15 16 16 17 16 16 18 18 18 18 18 18 18 18 18 18 17 16 15 15 14 13 13 12 12 12 11
19 19 20 22 22 24 25 26 26 26 25 25 24 22 21 20 18 17 17 17 17 16 17 17 16 17 16 16 18 19 19 20 19 19 19 19 19 19 18 17 17 16 16 15 14 14 14 13 13
18 19 20 21 22 23 24 25 26 26 26 26 26 25 22 21 20 19 18 19 19 18 18 18 19 19 18 17 18 19 20 20 20 20 20 20 21 20 19 19 19 18 18 17 16 16 16 15 15
18 19 20 21 22 22 24 25 25 26 27 28 27 26 24 23 21 20 20 21 21 21 21 20 19 20 19 19 20 20 20 20 21 21 22 22 22 22 21 21 20 20 19 18 18 17 17 17 16
19 19 20 21 22 23 24 25 26 27 28 28 28 27 26 25 24 23 23 23 23 23 22 22 20 20 21 21 21 21 21 21 22 23 24 24 23 23 22 22 22 22 21 20 20 19 19 18 18
19 19 20 21 22 22 23 24 25 26 27 27 28 28 27 27 26 25 25 24 23 24 24 24 24 23 23 23 23 23 23 23 23 24 25 26 25 24 24 23 23 24 23 22 22 21 21 20 20
18 19 20 21 21 22 22 24 25 25 26 26 27 28 29 29 29 28 27 26 26 26 26 25 26 26 24 25 25 25 24 25 25 25 26 27 27 27 26 25 25 25 24 23 24 24 23 23 22
18 18 19 21 21 22 21 22 26 24 25 26 26 27 29 30 30 30 30 29 28 28 27 27 26 26 27 26 27 26 26 27 27 27 27 28 28 28 28 27 26 26 26 26 26 25 25 24 24
17 17 19 22 22 22 22 23 25 23 24 25 26 27 28 30 31 32 32 31 30 29 29 28 27 26 27 28 27 27 27 27 28 27 28 29 30 30 30 28 27 27 27 27 27 27 27 26 26
17 18 19 21 23 22 22 23 23 23 23 24 25 27 28 29 30 32 32 32 32 31 30 29 28 27 28 28 28 28 28 28 28 27 27 29 30 30 30 29 29 29 29 29 29 29 29 28 28
18 18 18 21 22 22 22 23 23 22 22 23 24 25 27 28 30 31 32 33 33 32 31 31 30 29 29 28 27 28 27 27 28 27 27 28 29 30 30 31 30 29 29 29 30 29 29 29 29
17 17 18 20 21 21 21 21 21 22 22 22 23 24 25 27 30 31 31 32 33 33 32 31 30 30 30 30 29 29 28 29 29 29 28 28 28 29 30 32 31 29 28 28 29 29 30 30 30
16 16 17 19 19 19 19 19 19 20 20 21 21 22 23 25 27 29 30 31 32 32 32 32 30 30 30 30 30 29 29 29 27 28 28 29 30 28 28 30 30 30 30 30 30 31 31 31 31
15 17 17 18 17 16 17 16 17 18 19 20 20 21 22 23 24 26 28 30 31 31 31 31 30 31 30 29 29 28 27 27 26 27 28 27 29 30 29 29 30 31 31 31 30 30 30 30 30
16 17 17 17 17 16 17 16 16 17 17 18 19 19 21 22 22 24 26 27 28 29 30 30 31 30 29 28 28 27 26 25 26 26 27 28 29 30 30 30 31 30 30 30 31 30 31 31 31
16 16 16 15 15 15 15 16 15 16 15 16 17 18 20 22 22 23 24 25 26 28 29 29 30 30 29 28 26 26 27 26 26 27 28 28 28 30 31 31 30 30 30 31 31 31 31 32 32
15 13 12 12 12 13 15 16 15 15 15 16 16 17 18 19 21 23 23 24 25 27 28 28 28 29 28 28 27 27 26 27 26 27 28 28 28 28 28 28 29 29 29 29 29 30 31 32 33
14 12 11 12 12 13 15 15 15 14 14 15 16 17 18 19 20 23 24 25 25 26 27 27 28 28 27 27 27 26 26 25 26 26 26 27 28 28 26 26 27 28 28 27 28 29 31 32 33
12 11 11 12 13 13 14 14 14 13 13 13 15 16 17 19 20 21 23 24 25 26 27 27 27 27 27 27 27 27 26 25 25 25 24 25 27 28 26 26 27 28 28 29 29 30 32 32 34
11 10 11 10 11 12 13 13 12 13 13 14 15 16 17 18 20 22 22 23 24 25 26 27 27 26 26 27 27 27 26 26 26 24 25 26 27 27 28 27 28 29 30 31 31 32 33 34 35
10 10 11 11 12 12 12 12 13 13 13 14 15 16 17 18 18 19 21 21 22 23 24 24 25 25 25 25 25 25 25 25 25 25 26 27 27 27 29 30 31 31 32 33 33 34 34 35 36
10 10 11 12 12 12 13 13 12 12 13 14 15 16 17 17 16 17 18 20 21 22 24 25 25 25 25 25 25 25 25 24 24 24 25 27 28 29 30 31 32 33 33 34 34 35 35 36 37

GEFSSGP_500_meanwind_102.txt.gz
Wind_Speed
14 14 13 12 10 7 3 3 10 13 19 20 17 16 17 17 19 18 16 15 14 14 15 15 15 16 16 16 16 16 15 15 15 15 15 15 14 13 13 11 10 8 7 6 5 4 3 3 3
16 15 15 14 11 6 4 7 12 14 21 19 17 16 17 18 19 18 16 16 15 15 16 17 16 16 17 17 17 16 16 15 15 15 16 16 16 15 14 13 11 10 8 7 6 5 4 3 3
17 16 16 15 13 8 7 9 12 15 21 19 18 17 16 17 18 18 16 17 16 17 17 16 16 17 18 18 17 17 17 16 16 16 16 16 17 16 16 14 13 11 10 9 7 6 5 4 4
17 17 16 16 13 9 10 12 15 17 19 18 17 17 17 17 17 17 16 17 17 17 17 17 16 17 18 19 18 17 17 17 17 17 17 17 18 17 17 15 14 13 11 10 9 8 6 6 6
17 16 16 15 11 11 14 17 20 20 20 18 17 17 18 17 17 16 16 17 17 17 17 17 17 17 18 18 18 17 18 18 17 18 18 18 19 18 18 17 16 14 13 12 10 9 8 7 7
16 16 15 11 8 11 15 19 23 22 20 18 19 19 20 18 18 16 15 16 17 17 16 17 17 17 19 20 19 18 19 19 19 19 18 19 19 19 19 18 17 16 14 13 12 10 9 9 8
16 15 14 11 11 13 18 21 23 21 19 19 20 20 21 20 18 16 16 17 18 17 16 16 17 17 18 20 20 19 19 20 20 20 20 20 20 20 20 20 19 17 16 15 13 12 11 10 10
15 15 14 12 13 14 19 23 25 24 20 20 22 21 22 21 18 19 18 17 18 17 18 18 18 18 19 19 19 19 19 20 21 21 21 22 22 21 21 21 20 19 18 16 15 14 13 12 11
14 14 12 10 13 16 20 23 23 22 22 23 24 23 25 24 21 20 20 18 19 18 18 19 20 19 19 19 19 19 20 20 21 21 22 23 23 22 22 22 22 21 19 18 17 16 15 14 13
14 13 10 13 19 21 20 22 20 21 21 21 23 24 27 25 21 22 21 20 20 19 19 20 20 20 20 20 20 21 21 21 22 22 23 24 24 23 23 23 23 22 21 20 19 17 16 15 15
14 14 14 17 22 24 23 22 20 21 20 19 21 24 26 25 25 25 23 24 23 22 21 22 21 21 22 22 22 22 21 22 22 22 24 25 25 25 25 25 24 23 22 21 20 19 18 17 16
14 16 18 20 22 23 23 22 22 20 20 22 24 26 25 26 25 25 25 26 27 26 23 23 22 22 22 22 23 23 22 23 24 23 24 24 25 26 25 26 25 24 23 22 22 21 20 19 18
15 16 17 19 20 20 21 22 23 22 22 25 26 27 27 27 27 28 28 28 29 27 25 24 23 23 24 24 24 24 23 23 25 25 24 25 26 26 26 26 25 24 24 23 23 22 22 20 19
14 15 16 17 18 19 20 20 21 22 24 26 26 27 28 28 29 29 29 31 30 30 28 25 25 25 25 25 24 24 24 24 25 25 26 24 25 26 26 26 25 25 24 24 25 24 23 22 21
13 14 14 15 17 18 19 18 18 22 24 25 26 27 27 28 29 29 31 32 33 32 29 27 27 26 26 26 26 24 25 25 24 24 25 25 24 24 25 26 26 25 25 27 27 26 25 24 23
10 11 11 13 18 19 18 15 17 23 24 25 26 27 27 28 30 30 31 32 32 31 31 31 29 28 27 28 28 26 25 26 25 24 24 23 24 25 26 25 26 26 26 27 28 27 26 26 25
8 9 9 13 20 21 19 15 17 25 25 26 26 27 27 29 30 31 32 32 33 33 32 32 32 30 29 29 29 29 28 28 27 25 24 25 25 25 26 26 27 27 27 29 29 28 28 27 27
7 10 11 13 18 21 20 18 19 24 25 24 26 27 27 29 31 32 32 32 33 34 34 34 34 33 32 32 30 30 28 27 27 25 25 26 26 25 24 24 25 27 28 29 30 30 29 29 30
13 14 15 14 18 22 21 21 22 24 24 25 27 28 28 29 30 31 31 32 33 34 35 35 35 34 33 33 32 30 29 28 27 27 26 26 25 24 24 24 25 27 29 30 29 29 29 29 29
15 14 13 14 19 23 23 22 22 23 24 25 26 27 28 28 28 30 31 31 33 34 35 36 36 35 34 34 33 32 30 29 27 26 27 27 26 26 26 27 27 28 30 32 31 30 29 29 29
12 12 14 15 18 20 21 21 21 23 23 25 25 25 26 26 27 28 30 31 33 34 35 37 36 35 34 33 32 32 31 30 29 28 29 29 28 28 27 27 27 28 29 30 31 31 31 31 31
12 13 16 16 17 18 19 20 20 23 23 23 23 23 24 23 26 28 29 31 32 33 34 35 35 34 34 33 33 33 32 31 30 29 29 28 28 28 28 28 28 28 29 30 31 31 31 32 33
13 14 15 16 17 17 18 20 19 22 22 22 21 21 22 22 25 26 28 29 31 31 32 34 34 33 33 32 33 32 32 32 31 30 29 29 28 29 28 29 30 29 29 31 31 31 32 32 32
13 13 14 14 16 18 17 20 20 23 23 22 21 21 21 22 24 24 25 26 28 28 30 31 31 31 32 32 33 33 32 31 31 30 30 28 29 29 28 29 29 29 29 30 31 32 33 33 33
12 12 13 15 18 19 18 18 18 19 19 21 22 22 21 21 22 22 24 24 26 27 27 28 30 31 31 32 33 33 33 32 31 31 30 29 29 29 29 29 30 29 30 31 32 33 34 34 35
12 11 14 17 18 20 20 18 18 20 20 20 22 22 22 22 22 22 24 24 25 27 28 29 29 31 31 32 32 32 32 32 30 30 30 30 30 30 29 29 29 29 30 31 32 33 33 34 34
12 12 13 17 17 17 18 19 19 18 20 20 21 22 22 23 23 23 23 24 25 26 27 28 29 30 31 31 32 32 31 31 30 29 29 29 29 28 28 28 28 29 30 31 31 31 31 32 32
12 12 14 14 16 17 17 19 22 20 19 19 21 22 23 24 23 23 24 25 25 26 27 28 29 30 31 31 31 31 31 30 30 29 28 28 27 27 28 29 29 30 31 31 31 31 31 31 32
12 13 14 14 15 17 19 21 23 23 23 21 21 21 22 22 22 23 24 25 25 26 26 28 29 29 30 30 30 30 30 29 29 29 28 28 28 28 28 28 28 30 30 30 31 31 31 32 32
13 12 13 15 16 17 20 23 23 24 23 21 20 21 22 22 22 23 24 24 25 25 26 26 27 28 28 28 29 29 29 29 29 29 29 29 29 29 28 28 28 29 29 30 30 31 31 31 31